Location: Newark
(41.8083°N, 72.2500°W)
Time: 00:41:38
(UTC+00:00)

N. Korean satellite - Visible Passes

Search period start: 01 October 2020 00:00
Search period end: 11 October 2020 00:00
Orbit: 455 x 503 km, 97.2° (Epoch: 30 September)

Date Brightness Start Highest point End Pass type
(mag) Time Alt. Az. Time Alt. Az. Time Alt. Az.
02 Oct 7.5 10:08:58 10° NNE 10:12:29 52° E 10:15:55 10° S visible
03 Oct 9.2 09:43:23 10° NE 09:46:20 24° E 09:49:13 10° SSE visible
04 Oct 10.1 09:18:49 10° ENE 09:20:04 11° E 09:21:20 10° ESE visible
06 Oct 8.3 09:58:13 10° NNE 10:01:33 37° E 10:04:47 10° SSE visible
07 Oct 9.7 09:32:53 10° NE 09:35:20 18° E 09:37:44 10° SE visible
08 Oct 10.8 22:50:34 10° WSW 22:51:20 11° W 22:52:07 10° WNW visible
09 Oct 7.1 10:13:11 10° NNE 10:16:40 61° E 10:20:05 10° S visible
10 Oct 8.9 09:47:29 10° NE 09:50:30 27° E 09:53:29 10° SSE visible
